HVE2317 KBTV-KBPG

Flight info

Callsign HVE2317
Flight time N/A
Altitude 30000
Route NIPPY Q29 DORET/N0487F320 Q82 WWSHR Q29 MEMFS Q34 TXK J131 FUZ J66 ABI/N0487F330 PRTZY/N0489F320 WUNIL
Aircraft MD1F/H-SDE1E2E3FGHIJ2J3J4J5M1RWXY/LB1D1

Departure

Time N/A
Airport Patrick Leahy Burlington International Airport (KBTV)

Arrival

Time 2026-04-13 20:41
Airport Big Spring Mc Mahon-Wrinkle Airport (KBPG)
Time Latitude Longitude Altitude Speed Heading
2026-04-13 18:16 39.63366 -84.70824 30140 ft 446 kts 232°
2026-04-13 18:17 39.59199 -84.76814 30152 ft 447 kts 231°
2026-04-13 18:17 39.55030 -84.82797 30145 ft 447 kts 231°
2026-04-13 18:18 39.50857 -84.88759 30147 ft 447 kts 231°
2026-04-13 18:18 39.46706 -84.94681 30127 ft 447 kts 231°
2026-04-13 18:19 39.42514 -85.00652 30330 ft 449 kts 231°
2026-04-13 18:19 39.40407 -85.03648 30712 ft 449 kts 231°
2026-04-13 18:19 39.38308 -85.06625 31071 ft 448 kts 231°
2026-04-13 18:19 39.36213 -85.09589 31432 ft 446 kts 231°
2026-04-13 18:20 39.34121 -85.12555 31798 ft 443 kts 231°
2026-04-13 18:20 39.32079 -85.15455 32062 ft 443 kts 231°
2026-04-13 18:20 39.30008 -85.18394 32123 ft 442 kts 231°
2026-04-13 18:21 39.25864 -85.24248 32136 ft 442 kts 231°
2026-04-13 18:21 39.21699 -85.30087 32133 ft 443 kts 231°
2026-04-13 18:22 39.17536 -85.35919 32126 ft 443 kts 230°
2026-04-13 18:22 39.13385 -85.41748 32125 ft 443 kts 231°
2026-04-13 18:23 39.09220 -85.47596 32134 ft 443 kts 231°
2026-04-13 18:23 39.05055 -85.53439 32142 ft 443 kts 231°
2026-04-13 18:24 39.00883 -85.59278 32139 ft 445 kts 230°
2026-04-13 18:24 38.96719 -85.65077 32146 ft 444 kts 230°
2026-04-13 18:25 38.92525 -85.70916 32149 ft 445 kts 230°
2026-04-13 18:25 38.88328 -85.76746 32144 ft 444 kts 230°
2026-04-13 18:26 38.84132 -85.82560 32145 ft 444 kts 230°
2026-04-13 18:26 38.79956 -85.88341 32129 ft 445 kts 230°
2026-04-13 18:27 38.75753 -85.94170 32130 ft 445 kts 230°
2026-04-13 18:27 38.71537 -85.99977 32131 ft 445 kts 230°
2026-04-13 18:28 38.67312 -86.05758 32137 ft 445 kts 230°
2026-04-13 18:28 38.63075 -86.11549 32136 ft 445 kts 230°
2026-04-13 18:29 38.58879 -86.17286 32117 ft 445 kts 230°
2026-04-13 18:29 38.54648 -86.23081 32133 ft 446 kts 230°
2026-04-13 18:30 38.50410 -86.28880 32140 ft 447 kts 230°
2026-04-13 18:30 38.46165 -86.34670 32140 ft 446 kts 230°
2026-04-13 18:31 38.41950 -86.40415 32140 ft 446 kts 230°
2026-04-13 18:31 38.37709 -86.46180 32142 ft 446 kts 230°
2026-04-13 18:32 38.33466 -86.51942 32143 ft 446 kts 230°
2026-04-13 18:32 38.29215 -86.57695 32149 ft 446 kts 230°
2026-04-13 18:33 38.24983 -86.63410 32145 ft 447 kts 230°
2026-04-13 18:33 38.20718 -86.69171 32143 ft 447 kts 230°
2026-04-13 18:34 38.14321 -86.77773 32118 ft 446 kts 229°
2026-04-13 18:34 38.10037 -86.83503 32140 ft 448 kts 229°
2026-04-13 18:35 38.05767 -86.89197 32146 ft 448 kts 229°
2026-04-13 18:35 38.01473 -86.94931 32147 ft 448 kts 230°
2026-04-13 18:36 37.97168 -87.00679 32143 ft 450 kts 230°
2026-04-13 18:36 37.92889 -87.06381 32156 ft 448 kts 229°
2026-04-13 18:37 37.88798 -87.11824 32156 ft 450 kts 230°
2026-04-13 18:37 37.84465 -87.17588 32164 ft 451 kts 229°
2026-04-13 18:38 37.80149 -87.23317 32140 ft 450 kts 230°
2026-04-13 18:38 37.75863 -87.29008 32138 ft 450 kts 230°
2026-04-13 18:39 37.71535 -87.34727 32143 ft 450 kts 230°
2026-04-13 18:39 37.67194 -87.40437 32147 ft 451 kts 229°
2026-04-13 18:40 37.62848 -87.46152 32151 ft 452 kts 229°
2026-04-13 18:40 37.58529 -87.51828 32155 ft 451 kts 229°
2026-04-13 18:41 37.54161 -87.57536 32149 ft 452 kts 229°
2026-04-13 18:41 37.49786 -87.63223 32151 ft 452 kts 229°
2026-04-13 18:42 37.45427 -87.68912 32158 ft 452 kts 229°
2026-04-13 18:42 37.41094 -87.74573 32150 ft 453 kts 229°
2026-04-13 18:43 37.36439 -87.79951 32151 ft 457 kts 222°
2026-04-13 18:43 37.31394 -87.84827 32157 ft 458 kts 221°
2026-04-13 18:44 37.26313 -87.89641 32147 ft 458 kts 221°
2026-04-13 18:44 37.21281 -87.94456 32138 ft 457 kts 221°
2026-04-13 18:45 37.16233 -87.99315 32148 ft 458 kts 221°
2026-04-13 18:45 37.11183 -88.04179 32149 ft 458 kts 221°
2026-04-13 18:46 37.06124 -88.09039 32143 ft 458 kts 221°
2026-04-13 18:46 37.01100 -88.13861 32146 ft 458 kts 221°
2026-04-13 18:47 36.96040 -88.18714 32141 ft 459 kts 221°
2026-04-13 18:47 36.90971 -88.23565 32166 ft 459 kts 221°
2026-04-13 18:48 36.85880 -88.28408 32168 ft 459 kts 221°
2026-04-13 18:48 36.80846 -88.33205 32176 ft 459 kts 221°
2026-04-13 18:49 36.75751 -88.38047 32186 ft 459 kts 221°
2026-04-13 18:49 36.70667 -88.42858 32173 ft 460 kts 220°
2026-04-13 18:50 36.65569 -88.47669 32190 ft 460 kts 221°
2026-04-13 18:50 36.60506 -88.52452 32191 ft 460 kts 221°
2026-04-13 18:51 36.55400 -88.57265 32177 ft 461 kts 221°
2026-04-13 18:51 36.50291 -88.62067 32180 ft 461 kts 221°
2026-04-13 18:52 36.45173 -88.66887 32183 ft 462 kts 221°
2026-04-13 18:52 36.40089 -88.71667 32174 ft 462 kts 220°
2026-04-13 18:53 36.34965 -88.76466 32174 ft 462 kts 220°
2026-04-13 18:53 36.29835 -88.81265 32171 ft 462 kts 221°
2026-04-13 18:54 36.24708 -88.86055 32172 ft 462 kts 220°
2026-04-13 18:54 36.19615 -88.90818 32178 ft 462 kts 220°
2026-04-13 18:55 36.14469 -88.95615 32175 ft 463 kts 220°
2026-04-13 18:55 36.09309 -89.00390 32177 ft 463 kts 220°
2026-04-13 18:56 36.04155 -89.05161 32186 ft 463 kts 220°
2026-04-13 18:56 35.99004 -89.09930 32178 ft 463 kts 220°
2026-04-13 18:57 35.93846 -89.14708 32191 ft 463 kts 220°
2026-04-13 18:57 35.88725 -89.19437 32184 ft 463 kts 220°
2026-04-13 18:58 35.83559 -89.24191 32188 ft 463 kts 220°
2026-04-13 18:58 35.78392 -89.28933 32189 ft 463 kts 220°
2026-04-13 18:59 35.73235 -89.33677 32187 ft 463 kts 220°
2026-04-13 18:59 35.68108 -89.38403 32184 ft 463 kts 220°
2026-04-13 19:00 35.62934 -89.43138 32187 ft 464 kts 220°
2026-04-13 19:00 35.57760 -89.47849 32187 ft 463 kts 220°
2026-04-13 19:01 35.52584 -89.52584 32183 ft 463 kts 220°
2026-04-13 19:01 35.47445 -89.57264 32177 ft 463 kts 220°
2026-04-13 19:02 35.42258 -89.61972 32178 ft 463 kts 220°
2026-04-13 19:02 35.37074 -89.66660 32181 ft 464 kts 220°
2026-04-13 19:03 35.31890 -89.71351 32182 ft 463 kts 220°
2026-04-13 19:03 35.26708 -89.76048 32186 ft 463 kts 220°
2026-04-13 19:04 35.21547 -89.80712 32179 ft 464 kts 220°
2026-04-13 19:04 35.17554 -89.84316 32184 ft 464 kts 219°
2026-04-13 19:05 35.12352 -89.89003 32199 ft 464 kts 219°
2026-04-13 19:05 35.07148 -89.93686 32201 ft 464 kts 219°
2026-04-13 19:06 35.02111 -89.98507 32202 ft 461 kts 228°
2026-04-13 19:06 34.98446 -90.04771 32165 ft 454 kts 247°
2026-04-13 19:07 34.96115 -90.11934 32177 ft 455 kts 251°
2026-04-13 19:07 34.93879 -90.19153 32175 ft 455 kts 250°
2026-04-13 19:08 34.91501 -90.26298 32174 ft 455 kts 249°
2026-04-13 19:08 34.89070 -90.33369 32189 ft 456 kts 249°
2026-04-13 19:09 34.87019 -90.39283 32192 ft 456 kts 249°
2026-04-13 19:11 34.84646 -90.46113 32191 ft 456 kts 249°
2026-04-13 19:12 34.82176 -90.53220 32191 ft 456 kts 249°
2026-04-13 19:12 34.79702 -90.60316 32188 ft 455 kts 249°
2026-04-13 19:13 34.77236 -90.67361 32183 ft 456 kts 249°
2026-04-13 19:13 34.74755 -90.74449 32179 ft 454 kts 248°
2026-04-13 19:14 34.72278 -90.81521 32171 ft 455 kts 248°
2026-04-13 19:14 34.69796 -90.88591 32176 ft 455 kts 248°
2026-04-13 19:15 34.67320 -90.95624 32176 ft 455 kts 248°
2026-04-13 19:15 34.64802 -91.02681 32175 ft 455 kts 248°
2026-04-13 19:16 34.62289 -91.09734 32178 ft 455 kts 248°
2026-04-13 19:16 34.60204 -91.15597 32177 ft 455 kts 248°
2026-04-13 19:17 34.57697 -91.22646 32180 ft 454 kts 248°
2026-04-13 19:17 34.54779 -91.30821 32182 ft 454 kts 248°
2026-04-13 19:18 34.52271 -91.37860 32183 ft 454 kts 248°
2026-04-13 19:18 34.50184 -91.43699 32185 ft 454 kts 248°
2026-04-13 19:19 34.47661 -91.50717 32183 ft 454 kts 248°
2026-04-13 19:19 34.44727 -91.58877 32187 ft 455 kts 248°
2026-04-13 19:20 34.42620 -91.64731 32183 ft 456 kts 248°
2026-04-13 19:20 34.40080 -91.71755 32180 ft 455 kts 248°
2026-04-13 19:21 34.37542 -91.78777 32178 ft 455 kts 248°
2026-04-13 19:21 34.34998 -91.85797 32182 ft 456 kts 248°
2026-04-13 19:22 34.32457 -91.92767 32190 ft 455 kts 247°
2026-04-13 19:22 34.29894 -91.99748 32192 ft 454 kts 247°
2026-04-13 19:23 34.27330 -92.06734 32187 ft 454 kts 247°
2026-04-13 19:23 34.24778 -92.13709 32186 ft 454 kts 247°
2026-04-13 19:24 34.22243 -92.20643 32186 ft 454 kts 248°
2026-04-13 19:24 34.19684 -92.27610 32178 ft 454 kts 247°
2026-04-13 19:25 34.17089 -92.34584 32176 ft 454 kts 247°
2026-04-13 19:25 34.14506 -92.41528 32178 ft 454 kts 247°
2026-04-13 19:26 34.11928 -92.48485 32174 ft 454 kts 247°
2026-04-13 19:26 34.09363 -92.55380 32171 ft 454 kts 247°
2026-04-13 19:27 34.06766 -92.62320 32170 ft 454 kts 247°
2026-04-13 19:27 34.04191 -92.69272 32168 ft 453 kts 247°
2026-04-13 19:28 34.01632 -92.76194 32159 ft 452 kts 247°
2026-04-13 19:28 33.99097 -92.83059 32168 ft 451 kts 247°
2026-04-13 19:29 33.96537 -92.89963 32177 ft 452 kts 247°
2026-04-13 19:29 33.93972 -92.96872 32170 ft 451 kts 247°
2026-04-13 19:30 33.91410 -93.03771 32154 ft 452 kts 247°
2026-04-13 19:30 33.88843 -93.10623 32164 ft 452 kts 246°
2026-04-13 19:31 33.86233 -93.17513 32166 ft 453 kts 246°
2026-04-13 19:31 33.83601 -93.24394 32158 ft 452 kts 246°
2026-04-13 19:32 33.80974 -93.31258 32147 ft 452 kts 246°
2026-04-13 19:32 33.78363 -93.38069 32150 ft 451 kts 246°
2026-04-13 19:33 33.75732 -93.44930 32142 ft 452 kts 246°
2026-04-13 19:34 33.71791 -93.55202 32152 ft 452 kts 246°
2026-04-13 19:34 33.69152 -93.62064 32149 ft 452 kts 246°
2026-04-13 19:35 33.66528 -93.68863 32143 ft 452 kts 246°
2026-04-13 19:35 33.63878 -93.75718 32154 ft 452 kts 246°
2026-04-13 19:36 33.61693 -93.81362 32160 ft 454 kts 246°
2026-04-13 19:36 33.59049 -93.88185 32157 ft 453 kts 246°
2026-04-13 19:37 33.56376 -93.95042 32164 ft 453 kts 246°
2026-04-13 19:37 33.53700 -94.01885 32166 ft 454 kts 245°
2026-04-13 19:38 33.51036 -94.08751 32162 ft 453 kts 249°
2026-04-13 19:38 33.49283 -94.15989 32156 ft 453 kts 257°
2026-04-13 19:39 33.47992 -94.23316 32156 ft 451 kts 258°
2026-04-13 19:39 33.46696 -94.30664 32147 ft 451 kts 258°
2026-04-13 19:40 33.45342 -94.37999 32134 ft 452 kts 257°
2026-04-13 19:40 33.43979 -94.45281 32133 ft 451 kts 257°
2026-04-13 19:41 33.42596 -94.52610 32129 ft 451 kts 257°
2026-04-13 19:41 33.41213 -94.59935 32133 ft 450 kts 257°
2026-04-13 19:42 33.40113 -94.65766 32125 ft 448 kts 257°
2026-04-13 19:42 33.38727 -94.72992 32126 ft 448 kts 257°
2026-04-13 19:43 33.37345 -94.80253 32124 ft 448 kts 257°
2026-04-13 19:43 33.35954 -94.87510 32132 ft 447 kts 257°
2026-04-13 19:44 33.34560 -94.94751 32127 ft 447 kts 257°
2026-04-13 19:44 33.33170 -95.01942 32133 ft 446 kts 257°
2026-04-13 19:45 33.31755 -95.09147 32131 ft 445 kts 256°
2026-04-13 19:45 33.30339 -95.16323 32123 ft 445 kts 257°
2026-04-13 19:46 33.29903 -95.18562 32119 ft 445 kts 257°
2026-04-13 19:46 33.28557 -95.25490 32112 ft 446 kts 256°
2026-04-13 19:47 33.27143 -95.32702 32117 ft 446 kts 256°
2026-04-13 19:47 33.25732 -95.39904 32120 ft 444 kts 256°
2026-04-13 19:48 33.24323 -95.47029 32130 ft 443 kts 256°
2026-04-13 19:48 33.22903 -95.54176 32136 ft 443 kts 256°
2026-04-13 19:49 33.21487 -95.61341 32137 ft 443 kts 256°
2026-04-13 19:49 33.20077 -95.68454 32096 ft 443 kts 256°
2026-04-13 19:50 33.18649 -95.75609 32098 ft 443 kts 256°
2026-04-13 19:50 33.17215 -95.82771 32112 ft 443 kts 257°
2026-04-13 19:51 33.15793 -95.89955 32102 ft 444 kts 256°
2026-04-13 19:51 33.14314 -95.97135 32107 ft 444 kts 256°
2026-04-13 19:52 33.12877 -96.04232 32108 ft 443 kts 256°
2026-04-13 19:52 33.11416 -96.11360 32112 ft 442 kts 256°
2026-04-13 19:53 33.09963 -96.18484 32108 ft 442 kts 256°
2026-04-13 19:53 33.08513 -96.25590 32103 ft 441 kts 256°
2026-04-13 19:54 33.07064 -96.32641 32100 ft 441 kts 256°
2026-04-13 19:54 33.05600 -96.39748 32088 ft 442 kts 256°
2026-04-13 19:55 33.04138 -96.46853 32096 ft 441 kts 256°
2026-04-13 19:55 33.02667 -96.53950 32093 ft 441 kts 256°
2026-04-13 19:56 33.01209 -96.61010 32078 ft 441 kts 256°
2026-04-13 19:56 32.99740 -96.68089 32079 ft 441 kts 256°
2026-04-13 19:57 32.98251 -96.75180 32081 ft 441 kts 256°
2026-04-13 19:57 32.96779 -96.82245 32073 ft 442 kts 256°
2026-04-13 19:58 32.95289 -96.89372 32082 ft 443 kts 256°
2026-04-13 19:58 32.93799 -96.96467 32082 ft 443 kts 255°
2026-04-13 19:59 32.92287 -97.03545 32082 ft 443 kts 255°
2026-04-13 19:59 32.90767 -97.10611 32084 ft 442 kts 255°
2026-04-13 20:00 32.89251 -97.17714 32077 ft 442 kts 255°
2026-04-13 20:00 32.87785 -97.24798 32073 ft 443 kts 257°
2026-04-13 20:01 32.86676 -97.32030 32071 ft 443 kts 260°
2026-04-13 20:01 32.85689 -97.39258 32054 ft 443 kts 260°
2026-04-13 20:02 32.84693 -97.46441 32062 ft 443 kts 259°
2026-04-13 20:02 32.83670 -97.53651 32186 ft 443 kts 259°
2026-04-13 20:03 32.82641 -97.60876 32216 ft 443 kts 259°
2026-04-13 20:03 32.81604 -97.68044 32233 ft 443 kts 259°
2026-04-13 20:04 32.80565 -97.75255 32224 ft 441 kts 259°
2026-04-13 20:04 32.79525 -97.82444 32194 ft 442 kts 259°
2026-04-13 20:05 32.79005 -97.86046 32040 ft 442 kts 259°
2026-04-13 20:05 32.78483 -97.89647 32041 ft 442 kts 259°
2026-04-13 20:05 32.77438 -97.96796 32044 ft 442 kts 259°
2026-04-13 20:06 32.76390 -98.03959 32045 ft 438 kts 259°
2026-04-13 20:06 32.75345 -98.11093 32045 ft 439 kts 259°
2026-04-13 20:07 32.74289 -98.18230 32042 ft 438 kts 258°
2026-04-13 20:07 32.73227 -98.25304 32035 ft 438 kts 258°
2026-04-13 20:08 32.72141 -98.32435 32028 ft 439 kts 258°
2026-04-13 20:08 32.71065 -98.39557 32020 ft 436 kts 258°
2026-04-13 20:09 32.70001 -98.46644 32010 ft 436 kts 258°
2026-04-13 20:09 32.68939 -98.53683 32016 ft 436 kts 258°
2026-04-13 20:10 32.67869 -98.60771 32021 ft 436 kts 258°
2026-04-13 20:10 32.66792 -98.67846 32030 ft 435 kts 258°
2026-04-13 20:11 32.65715 -98.74916 32041 ft 435 kts 258°
2026-04-13 20:11 32.64638 -98.81912 32044 ft 433 kts 258°
2026-04-13 20:12 32.63556 -98.88951 32045 ft 434 kts 258°
2026-04-13 20:12 32.62466 -98.95981 32042 ft 434 kts 258°
2026-04-13 20:13 32.61381 -99.03010 32032 ft 433 kts 258°
2026-04-13 20:13 32.60302 -99.09991 32041 ft 433 kts 257°
2026-04-13 20:14 32.59207 -99.16988 32015 ft 431 kts 257°
2026-04-13 20:14 32.58095 -99.23977 31999 ft 430 kts 257°
2026-04-13 20:15 32.56976 -99.30948 31995 ft 431 kts 257°
2026-04-13 20:15 32.55866 -99.37924 32012 ft 430 kts 257°
2026-04-13 20:16 32.54767 -99.44854 32028 ft 431 kts 257°
2026-04-13 20:16 32.53661 -99.51819 32045 ft 430 kts 257°
2026-04-13 20:17 32.52552 -99.58769 32059 ft 429 kts 257°
2026-04-13 20:17 32.51441 -99.65678 32065 ft 430 kts 257°
2026-04-13 20:18 32.50323 -99.72643 32071 ft 430 kts 257°
2026-04-13 20:18 32.49197 -99.79606 32035 ft 430 kts 257°
2026-04-13 20:19 32.48059 -99.86562 32039 ft 429 kts 256°
2026-04-13 20:19 32.46897 -99.93427 32036 ft 428 kts 256°
2026-04-13 20:20 32.45720 -100.00348 32025 ft 428 kts 256°
2026-04-13 20:20 32.44548 -100.07254 32011 ft 428 kts 256°
2026-04-13 20:21 32.43370 -100.14149 31991 ft 425 kts 256°
2026-04-13 20:21 32.42797 -100.17514 31709 ft 413 kts 256°
2026-04-13 20:21 32.42239 -100.20796 31248 ft 411 kts 256°
2026-04-13 20:22 32.41669 -100.24116 30650 ft 412 kts 256°
2026-04-13 20:22 32.41096 -100.27450 30071 ft 415 kts 256°
2026-04-13 20:22 32.40522 -100.30808 29428 ft 418 kts 256°
2026-04-13 20:22 32.39944 -100.34189 28921 ft 421 kts 256°
2026-04-13 20:23 32.39361 -100.37587 28297 ft 422 kts 256°
2026-04-13 20:23 32.38775 -100.40998 27622 ft 423 kts 256°
2026-04-13 20:23 32.38190 -100.44395 26972 ft 420 kts 255°
2026-04-13 20:23 32.37609 -100.47771 26318 ft 417 kts 256°
2026-04-13 20:24 32.37038 -100.51066 25695 ft 415 kts 255°
2026-04-13 20:24 32.36456 -100.54400 25052 ft 412 kts 255°
2026-04-13 20:24 32.35882 -100.57703 24428 ft 409 kts 255°
2026-04-13 20:24 32.35310 -100.60993 23788 ft 406 kts 255°
2026-04-13 20:25 32.34752 -100.64250 23067 ft 404 kts 255°
2026-04-13 20:25 32.34193 -100.67491 22319 ft 400 kts 256°
2026-04-13 20:25 32.33632 -100.70700 21688 ft 397 kts 256°
2026-04-13 20:25 32.33073 -100.73872 21077 ft 392 kts 256°
2026-04-13 20:26 32.32517 -100.77014 20481 ft 388 kts 256°
2026-04-13 20:26 32.31974 -100.80085 19892 ft 385 kts 256°
2026-04-13 20:26 32.31411 -100.83154 19304 ft 380 kts 252°
2026-04-13 20:26 32.30378 -100.86007 18726 ft 377 kts 238°
2026-04-13 20:27 32.28875 -100.88526 18158 ft 373 kts 232°
2026-04-13 20:27 32.27228 -100.90883 17579 ft 370 kts 230°
2026-04-13 20:27 32.25550 -100.93173 17074 ft 368 kts 230°
2026-04-13 20:27 32.23865 -100.95433 16630 ft 365 kts 230°
2026-04-13 20:28 32.22185 -100.97671 16239 ft 362 kts 230°
2026-04-13 20:28 32.20564 -100.99823 15911 ft 348 kts 229°
2026-04-13 20:28 32.18985 -101.01919 15629 ft 337 kts 230°
2026-04-13 20:28 32.17428 -101.03975 15346 ft 334 kts 230°
2026-04-13 20:29 32.15881 -101.06015 15072 ft 333 kts 230°
2026-04-13 20:29 32.14336 -101.08047 14790 ft 332 kts 230°
2026-04-13 20:29 32.12798 -101.10073 14320 ft 329 kts 230°
2026-04-13 20:29 32.11280 -101.12063 13883 ft 324 kts 229°
2026-04-13 20:30 32.09794 -101.14019 13398 ft 316 kts 229°
2026-04-13 20:30 32.08362 -101.15916 12938 ft 310 kts 229°
2026-04-13 20:30 32.06943 -101.17798 12493 ft 305 kts 229°
2026-04-13 20:30 32.05563 -101.19645 12060 ft 291 kts 229°
2026-04-13 20:31 32.04277 -101.21379 11638 ft 276 kts 229°
2026-04-13 20:31 32.03024 -101.23078 11264 ft 274 kts 229°
2026-04-13 20:31 32.01786 -101.24779 10876 ft 274 kts 230°
2026-04-13 20:31 32.00496 -101.26424 10533 ft 273 kts 220°
2026-04-13 20:32 31.98994 -101.27753 10161 ft 268 kts 215°
2026-04-13 20:32 31.97457 -101.28988 9797 ft 265 kts 214°
2026-04-13 20:32 31.95942 -101.30200 9395 ft 262 kts 214°
2026-04-13 20:32 31.94470 -101.31386 9005 ft 258 kts 215°
2026-04-13 20:33 31.92985 -101.32565 8631 ft 256 kts 215°
2026-04-13 20:33 31.91505 -101.33731 8244 ft 257 kts 215°
2026-04-13 20:33 31.90108 -101.34826 8109 ft 223 kts 215°
2026-04-13 20:33 31.89060 -101.36095 7421 ft 216 kts 242°
2026-04-13 20:34 31.88758 -101.37807 6680 ft 217 kts 272°
2026-04-13 20:34 31.89309 -101.39452 5878 ft 222 kts 304°
2026-04-13 20:34 31.90407 -101.40735 5483 ft 226 kts 313°
2026-04-13 20:34 31.91527 -101.41924 5149 ft 211 kts 314°
2026-04-13 20:35 31.92581 -101.43030 4798 ft 195 kts 314°
2026-04-13 20:35 31.93571 -101.44040 4496 ft 183 kts 314°
2026-04-13 20:35 31.94533 -101.45031 4569 ft 185 kts 314°
2026-04-13 20:35 31.95508 -101.46063 4561 ft 189 kts 313°
2026-04-13 20:36 31.96473 -101.47097 4551 ft 186 kts 313°
2026-04-13 20:36 31.97433 -101.48123 4517 ft 186 kts 312°
2026-04-13 20:36 31.98383 -101.49152 4537 ft 186 kts 314°
2026-04-13 20:36 31.99341 -101.50187 4525 ft 186 kts 312°
2026-04-13 20:37 32.00305 -101.51215 4595 ft 190 kts 316°
2026-04-13 20:37 32.01363 -101.52126 4514 ft 187 kts 327°
2026-04-13 20:37 32.02601 -101.52648 4553 ft 194 kts 346°
2026-04-13 20:37 32.03962 -101.52746 4573 ft 198 kts 357°
2026-04-13 20:38 32.05345 -101.52717 4595 ft 199 kts 358°
2026-04-13 20:38 32.06716 -101.52712 4453 ft 195 kts 354°
2026-04-13 20:38 32.08057 -101.52765 4288 ft 192 kts 354°
2026-04-13 20:38 32.09399 -101.52708 4152 ft 194 kts 359°
2026-04-13 20:39 32.10741 -101.52583 4091 ft 193 kts
2026-04-13 20:39 32.12074 -101.52472 3829 ft 196 kts 358°
2026-04-13 20:39 32.13420 -101.52429 3583 ft 191 kts 356°
2026-04-13 20:39 32.14766 -101.52380 3312 ft 196 kts 358°
2026-04-13 20:40 32.16134 -101.52348 3173 ft 195 kts 359°
2026-04-13 20:40 32.17480 -101.52266 2922 ft 193 kts 356°
2026-04-13 20:40 32.18822 -101.52223 2762 ft 193 kts 354°
2026-04-13 20:40 32.20148 -101.52181 2621 ft 193 kts 356°
2026-04-13 20:41 32.21342 -101.52145 2576 ft 128 kts
2026-04-13 20:41 32.22009 -101.52114 2573 ft 71 kts
2026-04-13 20:41 32.22405 -101.52103 2575 ft 46 kts
2026-04-13 20:41 32.22651 -101.52093 2574 ft 29 kts 353°
2026-04-13 20:42 32.22820 -101.52194 2571 ft 24 kts 329°
2026-04-13 20:42 32.22874 -101.52341 2574 ft 18 kts 266°
2026-04-13 20:42 32.22853 -101.52387 2573 ft 2 kts 203°
2026-04-13 20:42 32.22844 -101.52385 2574 ft 4 kts 169°
2026-04-13 20:43 32.22839 -101.52352 2574 ft 4 kts 60°
2026-04-13 20:43 32.22858 -101.52328 2568 ft 0 kts 49°